Location: East Horndon
(51.5667°N, 0.3500°E)
Time: 02:51:57
(UTC+00:00)

CZ-2D R/B - Pass Details

Date: 08 November 2025
Orbit: 788 x 842 km, 98.9° (Epoch: 15 December)

Event Time Altitude Azimuth Distance (km) Brightness Sun altitude
Rises 03:11:08 0° 13° (NNE) 3,343 5.7 -36.1°
Reaches altitude 10° 03:13:31 10° 10° (N) 2,399 4.8 -35.7°
Enters shadow 03:14:30 16° 8° (N) 2,020 4.4 -35.6°
